Year,Month,Day,Hour,Minute,Value (Times are PST for temperature in C)
2017,09,03,00,00,19.20
2017,09,03,00,01,19.20
2017,09,03,00,02,19.30
2017,09,03,00,03,19.30
2017,09,03,00,04,19.20
2017,09,03,00,05,19.20
2017,09,03,00,06,19.20
2017,09,03,00,07,19.10
2017,09,03,00,08,19.10
2017,09,03,00,09,19.00
2017,09,03,00,10,19.00
2017,09,03,00,11,18.90
2017,09,03,00,12,18.90
2017,09,03,00,13,18.80
2017,09,03,00,14,18.80
2017,09,03,00,15,18.80
2017,09,03,00,16,18.80
2017,09,03,00,17,18.80
2017,09,03,00,18,18.70
2017,09,03,00,19,18.70
2017,09,03,00,20,18.70
2017,09,03,00,21,18.70
2017,09,03,00,22,18.60
2017,09,03,00,23,18.60
2017,09,03,00,24,18.60
2017,09,03,00,25,18.60
2017,09,03,00,26,18.60
2017,09,03,00,27,18.60
2017,09,03,00,28,18.60
2017,09,03,00,29,18.60
2017,09,03,00,30,18.50
2017,09,03,00,31,18.60
2017,09,03,00,32,18.50
2017,09,03,00,33,18.50
2017,09,03,00,34,18.50
2017,09,03,00,35,18.50
2017,09,03,00,36,18.50
2017,09,03,00,37,18.50
2017,09,03,00,38,18.50
2017,09,03,00,39,18.60
2017,09,03,00,40,18.60
2017,09,03,00,41,18.60
2017,09,03,00,42,18.70
2017,09,03,00,43,18.70
2017,09,03,00,44,18.70
2017,09,03,00,45,18.70
2017,09,03,00,46,18.80
2017,09,03,00,47,18.80
2017,09,03,00,48,18.80
2017,09,03,00,49,18.80
2017,09,03,00,50,18.80
2017,09,03,00,51,18.80
2017,09,03,00,52,18.80
2017,09,03,00,53,18.80
2017,09,03,00,54,18.80
2017,09,03,00,55,18.80
2017,09,03,00,56,18.80
2017,09,03,00,57,18.80
2017,09,03,00,58,18.80
2017,09,03,00,59,18.70
2017,09,03,01,00,18.70
2017,09,03,01,01,18.70
2017,09,03,01,02,18.70
2017,09,03,01,03,18.70
2017,09,03,01,04,18.70
2017,09,03,01,05,18.70
2017,09,03,01,06,18.60
2017,09,03,01,07,18.60
2017,09,03,01,08,18.60
2017,09,03,01,09,18.60
2017,09,03,01,10,18.60
2017,09,03,01,11,18.60
2017,09,03,01,12,18.60
2017,09,03,01,13,18.50
2017,09,03,01,14,18.50
2017,09,03,01,15,18.50
2017,09,03,01,16,18.50
2017,09,03,01,17,18.40
2017,09,03,01,18,18.40
2017,09,03,01,19,18.40
2017,09,03,01,20,18.40
2017,09,03,01,21,18.40
2017,09,03,01,22,18.30
2017,09,03,01,23,18.30
2017,09,03,01,24,18.30
2017,09,03,01,25,18.30
2017,09,03,01,26,18.30
2017,09,03,01,27,18.30
2017,09,03,01,28,18.30
2017,09,03,01,29,18.30
2017,09,03,01,30,18.30
2017,09,03,01,31,18.30
2017,09,03,01,32,18.30
2017,09,03,01,33,18.30
2017,09,03,01,34,18.30
2017,09,03,01,35,18.30
2017,09,03,01,36,18.30
2017,09,03,01,37,18.30
2017,09,03,01,38,18.30
2017,09,03,01,39,18.20
2017,09,03,01,40,18.20
2017,09,03,01,41,18.20
2017,09,03,01,42,18.20
2017,09,03,01,43,18.20
2017,09,03,01,44,18.10
2017,09,03,01,45,18.10
2017,09,03,01,46,18.10
2017,09,03,01,47,18.10
2017,09,03,01,48,18.10
2017,09,03,01,49,18.00
2017,09,03,01,50,18.00
2017,09,03,01,51,18.00
2017,09,03,01,52,17.90
2017,09,03,01,53,17.90
2017,09,03,01,54,17.90
2017,09,03,01,55,17.90
2017,09,03,01,56,17.90
2017,09,03,01,57,17.90
2017,09,03,01,58,17.90
2017,09,03,01,59,17.90
2017,09,03,02,00,17.80
2017,09,03,02,01,17.80
2017,09,03,02,02,17.80
2017,09,03,02,03,17.80
2017,09,03,02,04,17.80
2017,09,03,02,05,17.80
2017,09,03,02,06,17.80
2017,09,03,02,07,17.80
2017,09,03,02,08,17.70
2017,09,03,02,09,17.70
2017,09,03,02,10,17.70
2017,09,03,02,11,17.70
2017,09,03,02,12,17.70
2017,09,03,02,13,17.70
2017,09,03,02,14,17.60
2017,09,03,02,15,17.60
2017,09,03,02,16,17.60
2017,09,03,02,17,17.60
2017,09,03,02,18,17.60
2017,09,03,02,19,17.50
2017,09,03,02,20,17.50
2017,09,03,02,21,17.50
2017,09,03,02,22,17.40
2017,09,03,02,23,17.40
2017,09,03,02,24,17.40
2017,09,03,02,25,17.40
2017,09,03,02,26,17.40
2017,09,03,02,27,17.40
2017,09,03,02,28,17.40
2017,09,03,02,29,17.40
2017,09,03,02,30,17.30
2017,09,03,02,31,17.30
2017,09,03,02,32,17.30
2017,09,03,02,33,17.30
2017,09,03,02,34,17.30
2017,09,03,02,35,17.30
2017,09,03,02,36,17.30
2017,09,03,02,37,17.20
2017,09,03,02,38,17.20
2017,09,03,02,39,17.20
2017,09,03,02,40,17.20
2017,09,03,02,41,17.20
2017,09,03,02,42,17.10
2017,09,03,02,43,17.10
2017,09,03,02,44,17.10
2017,09,03,02,45,17.10
2017,09,03,02,46,17.10
2017,09,03,02,47,17.10
2017,09,03,02,48,17.00
2017,09,03,02,49,17.00
2017,09,03,02,50,17.00
2017,09,03,02,51,17.00
2017,09,03,02,52,16.90
2017,09,03,02,53,16.90
2017,09,03,02,54,16.90
2017,09,03,02,55,16.90
2017,09,03,02,56,16.90
2017,09,03,02,57,16.90
2017,09,03,02,58,16.90
2017,09,03,02,59,16.90
2017,09,03,03,00,16.90
2017,09,03,03,01,16.90
2017,09,03,03,02,16.90
2017,09,03,03,03,16.90
2017,09,03,03,04,16.90
2017,09,03,03,05,16.90
2017,09,03,03,06,16.90
2017,09,03,03,07,16.90
2017,09,03,03,08,16.90
2017,09,03,03,09,16.90
2017,09,03,03,10,16.90
2017,09,03,03,11,16.90
2017,09,03,03,12,16.90
2017,09,03,03,13,16.90
2017,09,03,03,14,16.90
2017,09,03,03,15,16.90
2017,09,03,03,16,16.80
2017,09,03,03,17,16.80
2017,09,03,03,18,16.80
2017,09,03,03,19,16.80
2017,09,03,03,20,16.80
2017,09,03,03,21,16.70
2017,09,03,03,22,16.70
2017,09,03,03,23,16.70
2017,09,03,03,24,16.60
2017,09,03,03,25,16.60
2017,09,03,03,26,16.60
2017,09,03,03,27,16.60
2017,09,03,03,28,16.50
2017,09,03,03,29,16.50
2017,09,03,03,30,16.40
2017,09,03,03,31,16.40
2017,09,03,03,32,16.40
2017,09,03,03,33,16.40
2017,09,03,03,34,16.40
2017,09,03,03,35,16.40
2017,09,03,03,36,16.30
2017,09,03,03,37,16.30
2017,09,03,03,38,16.30
2017,09,03,03,39,16.30
2017,09,03,03,40,16.30
2017,09,03,03,41,16.30
2017,09,03,03,42,16.30
2017,09,03,03,43,16.30
2017,09,03,03,44,16.30
2017,09,03,03,45,16.30
2017,09,03,03,46,16.30
2017,09,03,03,47,16.30
2017,09,03,03,48,16.30
2017,09,03,03,49,16.30
2017,09,03,03,50,16.20
2017,09,03,03,51,16.20
2017,09,03,03,52,16.20
2017,09,03,03,53,16.20
2017,09,03,03,54,16.20
2017,09,03,03,55,16.20
2017,09,03,03,56,16.20
2017,09,03,03,57,16.20
2017,09,03,03,58,16.20
2017,09,03,03,59,16.20
2017,09,03,04,00,16.20
2017,09,03,04,01,16.20
2017,09,03,04,02,16.20
2017,09,03,04,03,16.20
2017,09,03,04,04,16.20
2017,09,03,04,05,16.20
2017,09,03,04,06,16.20
2017,09,03,04,07,16.20
2017,09,03,04,08,16.20
2017,09,03,04,09,16.10
2017,09,03,04,10,16.10
2017,09,03,04,11,16.10
2017,09,03,04,12,16.10
2017,09,03,04,13,16.10
2017,09,03,04,14,16.10
2017,09,03,04,15,16.10
2017,09,03,04,16,16.10
2017,09,03,04,17,16.10
2017,09,03,04,18,16.10
2017,09,03,04,19,16.10
2017,09,03,04,20,16.00
2017,09,03,04,21,16.00
2017,09,03,04,22,16.00
2017,09,03,04,23,16.00
2017,09,03,04,24,16.00
2017,09,03,04,25,15.90
2017,09,03,04,26,15.90
2017,09,03,04,27,15.90
2017,09,03,04,28,15.90
2017,09,03,04,29,15.90
2017,09,03,04,30,15.90
2017,09,03,04,31,15.90
2017,09,03,04,32,15.90
2017,09,03,04,33,15.80
2017,09,03,04,34,15.80
2017,09,03,04,35,15.80
2017,09,03,04,36,15.80
2017,09,03,04,37,15.80
2017,09,03,04,38,15.80
2017,09,03,04,39,15.80
2017,09,03,04,40,15.80
2017,09,03,04,41,15.80
2017,09,03,04,42,15.80
2017,09,03,04,43,15.80
2017,09,03,04,44,15.80
2017,09,03,04,45,15.80
2017,09,03,04,46,15.70
2017,09,03,04,47,15.70
2017,09,03,04,48,15.70
2017,09,03,04,49,15.70
2017,09,03,04,50,15.70
2017,09,03,04,51,15.70
2017,09,03,04,52,15.70
2017,09,03,04,53,15.70
2017,09,03,04,54,15.70
2017,09,03,04,55,15.60
2017,09,03,04,56,15.60
2017,09,03,04,57,15.60
2017,09,03,04,58,15.60
2017,09,03,04,59,15.60
2017,09,03,05,00,15.60
2017,09,03,05,01,15.60
2017,09,03,05,02,15.60
2017,09,03,05,03,15.60
2017,09,03,05,04,15.50
2017,09,03,05,05,15.50
2017,09,03,05,06,15.50
2017,09,03,05,07,15.50
2017,09,03,05,08,15.50
2017,09,03,05,09,15.50
2017,09,03,05,10,15.50
2017,09,03,05,11,15.50
2017,09,03,05,12,15.50
2017,09,03,05,13,15.50
2017,09,03,05,14,15.50
2017,09,03,05,15,15.50
2017,09,03,05,16,15.50
2017,09,03,05,17,15.50
2017,09,03,05,18,15.50
2017,09,03,05,19,15.40
2017,09,03,05,20,15.40
2017,09,03,05,21,15.50
2017,09,03,05,22,15.50
2017,09,03,05,23,15.50
2017,09,03,05,24,15.50
2017,09,03,05,25,15.50
2017,09,03,05,26,15.60
2017,09,03,05,27,15.60
2017,09,03,05,28,15.60
2017,09,03,05,29,15.60
2017,09,03,05,30,15.50
2017,09,03,05,31,15.50
2017,09,03,05,32,15.50
2017,09,03,05,33,15.50
2017,09,03,05,34,15.40
2017,09,03,05,35,15.40
2017,09,03,05,36,15.40
2017,09,03,05,37,15.40
2017,09,03,05,38,15.40
2017,09,03,05,39,15.40
2017,09,03,05,40,15.40
2017,09,03,05,41,15.40
2017,09,03,05,42,15.40
2017,09,03,05,43,15.40
2017,09,03,05,44,15.40
2017,09,03,05,45,15.40
2017,09,03,05,46,15.40
2017,09,03,05,47,15.40
2017,09,03,05,48,15.40
2017,09,03,05,49,15.50
2017,09,03,05,50,15.50
2017,09,03,05,51,15.50
2017,09,03,05,52,15.50
2017,09,03,05,53,15.60
2017,09,03,05,54,15.70
2017,09,03,05,55,15.70
2017,09,03,05,56,15.80
2017,09,03,05,57,15.80
2017,09,03,05,58,15.90
2017,09,03,05,59,15.90
2017,09,03,06,00,15.80
2017,09,03,06,01,15.80
2017,09,03,06,02,15.80
2017,09,03,06,03,15.70
2017,09,03,06,04,15.70
2017,09,03,06,05,15.70
2017,09,03,06,06,15.60
2017,09,03,06,07,15.60
2017,09,03,06,08,15.60
2017,09,03,06,09,15.50
2017,09,03,06,10,15.50
2017,09,03,06,11,15.50
2017,09,03,06,12,15.40
2017,09,03,06,13,15.40
2017,09,03,06,14,15.40
2017,09,03,06,15,15.40
2017,09,03,06,16,15.30
2017,09,03,06,17,15.30
2017,09,03,06,18,15.30
2017,09,03,06,19,15.30
2017,09,03,06,20,15.30
2017,09,03,06,21,15.20
2017,09,03,06,22,15.20
2017,09,03,06,23,15.20
2017,09,03,06,24,15.20
2017,09,03,06,25,15.20
2017,09,03,06,26,15.20
2017,09,03,06,27,15.20
2017,09,03,06,28,15.20
2017,09,03,06,29,15.20
2017,09,03,06,30,15.20
2017,09,03,06,31,15.20
2017,09,03,06,32,15.20
2017,09,03,06,33,15.20
2017,09,03,06,34,15.20
2017,09,03,06,35,15.20
2017,09,03,06,36,15.20
2017,09,03,06,37,15.20
2017,09,03,06,38,15.20
2017,09,03,06,39,15.20
2017,09,03,06,40,15.20
2017,09,03,06,41,15.20
2017,09,03,06,42,15.20
2017,09,03,06,43,15.20
2017,09,03,06,44,15.20
2017,09,03,06,45,15.20
2017,09,03,06,46,15.20
2017,09,03,06,47,15.20
2017,09,03,06,48,15.20
2017,09,03,06,49,15.20
2017,09,03,06,50,15.10
2017,09,03,06,51,15.10
2017,09,03,06,52,15.10
2017,09,03,06,53,15.00
2017,09,03,06,54,15.00
2017,09,03,06,55,15.00
2017,09,03,06,56,14.90
2017,09,03,06,57,14.90
2017,09,03,06,58,14.90
2017,09,03,06,59,15.00
2017,09,03,07,00,14.90
2017,09,03,07,01,14.90
2017,09,03,07,02,14.90
2017,09,03,07,03,14.90
2017,09,03,07,04,14.90
2017,09,03,07,05,14.90
2017,09,03,07,06,15.00
2017,09,03,07,07,15.00
2017,09,03,07,08,15.00
2017,09,03,07,09,15.00
2017,09,03,07,10,15.00
2017,09,03,07,11,15.00
2017,09,03,07,12,15.10
2017,09,03,07,13,15.20
2017,09,03,07,14,15.20
2017,09,03,07,15,15.20
2017,09,03,07,16,15.30
2017,09,03,07,17,15.20
2017,09,03,07,18,15.20
2017,09,03,07,19,15.20
2017,09,03,07,20,15.20
2017,09,03,07,21,15.10
2017,09,03,07,22,15.10
2017,09,03,07,23,15.10
2017,09,03,07,24,15.10
2017,09,03,07,25,15.10
2017,09,03,07,26,15.10
2017,09,03,07,27,15.20
2017,09,03,07,28,15.20
2017,09,03,07,29,15.20
2017,09,03,07,30,15.20
2017,09,03,07,31,15.30
2017,09,03,07,32,15.30
2017,09,03,07,33,15.30
2017,09,03,07,34,15.30
2017,09,03,07,35,15.30
2017,09,03,07,36,15.40
2017,09,03,07,37,15.40
2017,09,03,07,38,15.40
2017,09,03,07,39,15.40
2017,09,03,07,40,15.50
2017,09,03,07,41,15.60
2017,09,03,07,42,15.60
2017,09,03,07,43,15.70
2017,09,03,07,44,15.70
2017,09,03,07,45,15.80
2017,09,03,07,46,15.80
2017,09,03,07,47,15.80
2017,09,03,07,48,15.80
2017,09,03,07,49,15.90
2017,09,03,07,50,15.90
2017,09,03,07,51,15.90
2017,09,03,07,52,15.90
2017,09,03,07,53,15.90
2017,09,03,07,54,16.00
2017,09,03,07,55,16.00
2017,09,03,07,56,16.10
2017,09,03,07,57,16.10
2017,09,03,07,58,16.20
2017,09,03,07,59,16.20
2017,09,03,08,00,16.30
2017,09,03,08,01,16.30
2017,09,03,08,02,16.40
2017,09,03,08,03,16.40
2017,09,03,08,04,16.40
2017,09,03,08,05,16.50
2017,09,03,08,06,16.50
2017,09,03,08,07,16.60
2017,09,03,08,08,16.60
2017,09,03,08,09,16.60
2017,09,03,08,10,16.60
2017,09,03,08,11,16.70
2017,09,03,08,12,16.70
2017,09,03,08,13,16.70
2017,09,03,08,14,16.70
2017,09,03,08,15,16.70
2017,09,03,08,16,16.80
2017,09,03,08,17,16.80
2017,09,03,08,18,16.80
2017,09,03,08,19,16.80
2017,09,03,08,20,16.80
2017,09,03,08,21,16.80
2017,09,03,08,22,16.90
2017,09,03,08,23,16.90
2017,09,03,08,24,17.00
2017,09,03,08,25,17.00
2017,09,03,08,26,17.00
2017,09,03,08,27,17.10
2017,09,03,08,28,17.10
2017,09,03,08,29,17.20
2017,09,03,08,30,17.20
2017,09,03,08,31,17.20
2017,09,03,08,32,17.20
2017,09,03,08,33,17.30
2017,09,03,08,34,17.30
2017,09,03,08,35,17.30
2017,09,03,08,36,17.40
2017,09,03,08,37,17.40
2017,09,03,08,38,17.50
2017,09,03,08,39,17.50
2017,09,03,08,40,17.60
2017,09,03,08,41,17.60
2017,09,03,08,42,17.70
2017,09,03,08,43,17.70
2017,09,03,08,44,17.80
2017,09,03,08,45,17.80
2017,09,03,08,46,17.90
2017,09,03,08,47,17.90
2017,09,03,08,48,17.90
2017,09,03,08,49,18.00
2017,09,03,08,50,18.00
2017,09,03,08,51,18.10
2017,09,03,08,52,18.10
2017,09,03,08,53,18.10
2017,09,03,08,54,18.20
2017,09,03,08,55,18.30
2017,09,03,08,56,18.30
2017,09,03,08,57,18.40
2017,09,03,08,58,18.40
2017,09,03,08,59,18.50
2017,09,03,09,00,18.60
2017,09,03,09,01,18.70
2017,09,03,09,02,18.80
2017,09,03,09,03,18.80
2017,09,03,09,04,18.80
2017,09,03,09,05,18.80
2017,09,03,09,06,18.90
2017,09,03,09,07,18.90
2017,09,03,09,08,18.90
2017,09,03,09,09,19.00
2017,09,03,09,10,19.00
2017,09,03,09,11,19.00
2017,09,03,09,12,19.10
2017,09,03,09,13,19.10
2017,09,03,09,14,19.10
2017,09,03,09,15,19.20
2017,09,03,09,16,19.20
2017,09,03,09,17,19.20
2017,09,03,09,18,19.30
2017,09,03,09,19,19.30
2017,09,03,09,20,19.30
2017,09,03,09,21,19.30
2017,09,03,09,22,19.40
2017,09,03,09,23,19.40
2017,09,03,09,24,19.40
2017,09,03,09,25,19.40
2017,09,03,09,26,19.50
2017,09,03,09,27,19.50
2017,09,03,09,28,19.60
2017,09,03,09,29,19.60
2017,09,03,09,30,19.60
2017,09,03,09,31,19.60
2017,09,03,09,32,19.70
2017,09,03,09,33,19.70
2017,09,03,09,34,19.70
2017,09,03,09,35,19.70
2017,09,03,09,36,19.80
2017,09,03,09,37,19.80
2017,09,03,09,38,19.80
2017,09,03,09,39,19.80
2017,09,03,09,40,19.90
2017,09,03,09,41,19.90
2017,09,03,09,42,20.00
2017,09,03,09,43,20.00
2017,09,03,09,44,20.10
2017,09,03,09,45,20.10
2017,09,03,09,46,20.10
2017,09,03,09,47,20.20
2017,09,03,09,48,20.20
2017,09,03,09,49,20.30
2017,09,03,09,50,20.30
2017,09,03,09,51,20.40
2017,09,03,09,52,20.50
2017,09,03,09,53,20.60
2017,09,03,09,54,20.70
2017,09,03,09,55,20.80
2017,09,03,09,56,20.80
2017,09,03,09,57,20.90
2017,09,03,09,58,21.00
2017,09,03,09,59,21.10
2017,09,03,10,00,21.10
2017,09,03,10,01,21.20
2017,09,03,10,02,21.20
2017,09,03,10,03,21.30
2017,09,03,10,04,21.30
2017,09,03,10,05,21.40
2017,09,03,10,06,21.40
2017,09,03,10,07,21.50
2017,09,03,10,08,21.50
2017,09,03,10,09,21.50
2017,09,03,10,10,21.50
2017,09,03,10,11,21.50
2017,09,03,10,12,21.60
2017,09,03,10,13,21.60
2017,09,03,10,14,21.70
2017,09,03,10,15,21.70
2017,09,03,10,16,21.70
2017,09,03,10,17,21.80
2017,09,03,10,18,21.80
2017,09,03,10,19,21.80
2017,09,03,10,20,21.90
2017,09,03,10,21,21.90
2017,09,03,10,22,22.00
2017,09,03,10,23,22.10
2017,09,03,10,24,22.10
2017,09,03,10,25,22.20
2017,09,03,10,26,22.20
2017,09,03,10,27,22.30
2017,09,03,10,28,22.30
2017,09,03,10,29,22.30
2017,09,03,10,30,22.30
2017,09,03,10,31,22.30
2017,09,03,10,32,22.40
2017,09,03,10,33,22.40
2017,09,03,10,34,22.40
2017,09,03,10,35,22.50
2017,09,03,10,36,22.50
2017,09,03,10,37,22.60
2017,09,03,10,38,22.60
2017,09,03,10,39,22.50
2017,09,03,10,40,22.50
2017,09,03,10,41,22.40
2017,09,03,10,42,22.40
2017,09,03,10,43,22.40
2017,09,03,10,44,22.40
2017,09,03,10,45,22.40
2017,09,03,10,46,22.40
2017,09,03,10,47,22.50
2017,09,03,10,48,22.50
2017,09,03,10,49,22.60
2017,09,03,10,50,22.70
2017,09,03,10,51,22.80
2017,09,03,10,52,22.80
2017,09,03,10,53,22.80
2017,09,03,10,54,22.80
2017,09,03,10,55,22.80
2017,09,03,10,56,22.90
2017,09,03,10,57,22.90
2017,09,03,10,58,22.90
2017,09,03,10,59,22.90
2017,09,03,11,00,22.90
2017,09,03,11,01,23.00
2017,09,03,11,02,23.00
2017,09,03,11,03,23.10
2017,09,03,11,04,23.20
2017,09,03,11,05,23.20
2017,09,03,11,06,23.20
2017,09,03,11,07,23.30
2017,09,03,11,08,23.30
2017,09,03,11,09,23.40
2017,09,03,11,10,23.40
2017,09,03,11,11,23.40
2017,09,03,11,12,23.50
2017,09,03,11,13,23.50
2017,09,03,11,14,23.60
2017,09,03,11,15,23.70
2017,09,03,11,16,23.70
2017,09,03,11,17,23.80
2017,09,03,11,18,23.90
2017,09,03,11,19,24.00
2017,09,03,11,20,24.00
2017,09,03,11,21,24.10
2017,09,03,11,22,24.10
2017,09,03,11,23,24.20
2017,09,03,11,24,24.30
2017,09,03,11,25,24.40
2017,09,03,11,26,24.40
2017,09,03,11,27,24.50
2017,09,03,11,28,24.60
2017,09,03,11,29,24.60
2017,09,03,11,30,24.60
2017,09,03,11,31,24.60
2017,09,03,11,32,24.70
2017,09,03,11,33,24.70
2017,09,03,11,34,24.70
2017,09,03,11,35,24.80
2017,09,03,11,36,24.80
2017,09,03,11,37,24.80
2017,09,03,11,38,24.90
2017,09,03,11,39,25.00
2017,09,03,11,40,25.00
2017,09,03,11,41,25.10
2017,09,03,11,42,25.10
2017,09,03,11,43,25.10
2017,09,03,11,44,25.10
2017,09,03,11,45,25.10
2017,09,03,11,46,25.20
2017,09,03,11,47,25.20
2017,09,03,11,48,25.20
2017,09,03,11,49,25.30
2017,09,03,11,50,25.30
2017,09,03,11,51,25.30
2017,09,03,11,52,25.30
2017,09,03,11,53,25.30
2017,09,03,11,54,25.30
2017,09,03,11,55,25.30
2017,09,03,11,56,25.30
2017,09,03,11,57,25.20
2017,09,03,11,58,25.20
2017,09,03,11,59,25.20
2017,09,03,12,00,25.20
2017,09,03,12,01,25.30
2017,09,03,12,02,25.30
2017,09,03,12,03,25.30
2017,09,03,12,04,25.30
2017,09,03,12,05,25.40
2017,09,03,12,06,25.40
2017,09,03,12,07,25.40
2017,09,03,12,08,25.40
2017,09,03,12,09,25.50
2017,09,03,12,10,25.50
2017,09,03,12,11,25.60
2017,09,03,12,12,25.70
2017,09,03,12,13,25.70
2017,09,03,12,14,25.70
2017,09,03,12,15,25.80
2017,09,03,12,16,25.80
2017,09,03,12,17,25.80
2017,09,03,12,18,25.80
2017,09,03,12,19,25.70
2017,09,03,12,20,25.70
2017,09,03,12,21,25.60
2017,09,03,12,22,25.60
2017,09,03,12,23,25.60
2017,09,03,12,24,25.60
2017,09,03,12,25,25.60
2017,09,03,12,26,25.60
2017,09,03,12,27,25.60
2017,09,03,12,28,25.60
2017,09,03,12,29,25.60
2017,09,03,12,30,25.60
2017,09,03,12,31,25.60
2017,09,03,12,32,25.60
2017,09,03,12,33,25.60
2017,09,03,12,34,25.60
2017,09,03,12,35,25.60
2017,09,03,12,36,25.60
2017,09,03,12,37,25.60
2017,09,03,12,38,25.60
2017,09,03,12,39,25.70
2017,09,03,12,40,25.60
2017,09,03,12,41,25.60
2017,09,03,12,42,25.60
2017,09,03,12,43,25.60
2017,09,03,12,44,25.70
2017,09,03,12,45,25.70
2017,09,03,12,46,25.80
2017,09,03,12,47,25.80
2017,09,03,12,48,25.90
2017,09,03,12,49,25.90
2017,09,03,12,50,25.90
2017,09,03,12,51,26.00
2017,09,03,12,52,26.00
2017,09,03,12,53,26.00
2017,09,03,12,54,26.10
2017,09,03,12,55,26.10
2017,09,03,12,56,26.10
2017,09,03,12,57,26.20
2017,09,03,12,58,26.20
2017,09,03,12,59,26.20
2017,09,03,13,00,26.20
2017,09,03,13,01,26.20
2017,09,03,13,02,26.30
2017,09,03,13,03,26.30
2017,09,03,13,04,26.30
2017,09,03,13,05,26.40
2017,09,03,13,06,26.40
2017,09,03,13,07,26.50
2017,09,03,13,08,26.50
2017,09,03,13,09,26.60
2017,09,03,13,10,26.60
2017,09,03,13,11,26.60
2017,09,03,13,12,26.60
2017,09,03,13,13,26.70
2017,09,03,13,14,26.70
2017,09,03,13,15,26.70
2017,09,03,13,16,26.80
2017,09,03,13,17,26.90
2017,09,03,13,18,26.90
2017,09,03,13,19,27.00
2017,09,03,13,20,27.00
2017,09,03,13,21,27.00
2017,09,03,13,22,27.10
2017,09,03,13,23,27.20
2017,09,03,13,24,27.20
2017,09,03,13,25,27.30
2017,09,03,13,26,27.30
2017,09,03,13,27,27.30
2017,09,03,13,28,27.30
2017,09,03,13,29,27.30
2017,09,03,13,30,27.30
2017,09,03,13,31,27.30
2017,09,03,13,32,27.30
2017,09,03,13,33,27.40
2017,09,03,13,34,27.40
2017,09,03,13,35,27.50
2017,09,03,13,36,27.60
2017,09,03,13,37,27.60
2017,09,03,13,38,27.70
2017,09,03,13,39,27.80
2017,09,03,13,40,27.80
2017,09,03,13,41,27.80
2017,09,03,13,42,27.80
2017,09,03,13,43,27.90
2017,09,03,13,44,28.00
2017,09,03,13,45,28.10
2017,09,03,13,46,28.20
2017,09,03,13,47,28.30
2017,09,03,13,48,28.40
2017,09,03,13,49,28.40
2017,09,03,13,50,28.50
2017,09,03,13,51,28.50
2017,09,03,13,52,28.60
2017,09,03,13,53,28.70
2017,09,03,13,54,28.80
2017,09,03,13,55,28.80
2017,09,03,13,56,28.90
2017,09,03,13,57,28.90
2017,09,03,13,58,29.00
2017,09,03,13,59,29.10
2017,09,03,14,00,29.10
2017,09,03,14,01,29.20
2017,09,03,14,02,29.20
2017,09,03,14,03,29.20
2017,09,03,14,04,29.20
2017,09,03,14,05,29.20
2017,09,03,14,06,29.20
2017,09,03,14,07,29.10
2017,09,03,14,08,29.20
2017,09,03,14,09,29.20
2017,09,03,14,10,29.30
2017,09,03,14,11,29.30
2017,09,03,14,12,29.30
2017,09,03,14,13,29.30
2017,09,03,14,14,29.30
2017,09,03,14,15,29.30
2017,09,03,14,16,29.30
2017,09,03,14,17,29.30
2017,09,03,14,18,29.30
2017,09,03,14,19,29.20
2017,09,03,14,20,29.20
2017,09,03,14,21,29.20
2017,09,03,14,22,29.20
2017,09,03,14,23,29.20
2017,09,03,14,24,29.20
2017,09,03,14,25,29.20
2017,09,03,14,26,29.20
2017,09,03,14,27,29.20
2017,09,03,14,28,29.20
2017,09,03,14,29,29.20
2017,09,03,14,30,29.20
2017,09,03,14,31,29.30
2017,09,03,14,32,29.30
2017,09,03,14,33,29.40
2017,09,03,14,34,29.40
2017,09,03,14,35,29.40
2017,09,03,14,36,29.40
2017,09,03,14,37,29.40
2017,09,03,14,38,29.30
2017,09,03,14,39,29.30
2017,09,03,14,40,29.20
2017,09,03,14,41,29.10
2017,09,03,14,42,29.10
2017,09,03,14,43,29.10
2017,09,03,14,44,29.10
2017,09,03,14,45,29.00
2017,09,03,14,46,29.00
2017,09,03,14,47,28.90
2017,09,03,14,48,28.90
2017,09,03,14,49,29.00
2017,09,03,14,50,29.00
2017,09,03,14,51,29.10
2017,09,03,14,52,29.20
2017,09,03,14,53,29.20
2017,09,03,14,54,29.20
2017,09,03,14,55,29.30
2017,09,03,14,56,29.30
2017,09,03,14,57,29.30
2017,09,03,14,58,29.30
2017,09,03,14,59,29.30
2017,09,03,15,00,29.40
2017,09,03,15,01,29.50
2017,09,03,15,02,29.50
2017,09,03,15,03,29.60
2017,09,03,15,04,29.50
2017,09,03,15,05,29.50
2017,09,03,15,06,29.40
2017,09,03,15,07,29.30
2017,09,03,15,08,29.30
2017,09,03,15,09,29.30
2017,09,03,15,10,29.30
2017,09,03,15,11,29.20
2017,09,03,15,12,29.20
2017,09,03,15,13,29.20
2017,09,03,15,14,29.20
2017,09,03,15,15,29.20
2017,09,03,15,16,29.20
2017,09,03,15,17,29.10
2017,09,03,15,18,29.10
2017,09,03,15,19,29.10
2017,09,03,15,20,29.10
2017,09,03,15,21,29.10
2017,09,03,15,22,29.10
2017,09,03,15,23,29.00
2017,09,03,15,24,29.00
2017,09,03,15,25,29.10
2017,09,03,15,26,29.10
2017,09,03,15,27,29.10
2017,09,03,15,28,29.10
2017,09,03,15,29,29.10
2017,09,03,15,30,29.00
2017,09,03,15,31,29.00
2017,09,03,15,32,28.90
2017,09,03,15,33,28.80
2017,09,03,15,34,28.80
2017,09,03,15,35,28.80
2017,09,03,15,36,28.80
2017,09,03,15,37,28.80
2017,09,03,15,38,28.80
2017,09,03,15,39,28.80
2017,09,03,15,40,28.90
2017,09,03,15,41,28.80
2017,09,03,15,42,28.90
2017,09,03,15,43,28.90
2017,09,03,15,44,28.90
2017,09,03,15,45,29.00
2017,09,03,15,46,29.00
2017,09,03,15,47,29.10
2017,09,03,15,48,29.10
2017,09,03,15,49,29.20
2017,09,03,15,50,29.30
2017,09,03,15,51,29.30
2017,09,03,15,52,29.40
2017,09,03,15,53,29.50
2017,09,03,15,54,29.60
2017,09,03,15,55,29.60
2017,09,03,15,56,29.70
2017,09,03,15,57,29.70
2017,09,03,15,58,29.80
2017,09,03,15,59,29.80
2017,09,03,16,00,29.80
2017,09,03,16,01,29.80
2017,09,03,16,02,29.80
2017,09,03,16,03,29.90
2017,09,03,16,04,29.90
2017,09,03,16,05,29.90
2017,09,03,16,06,29.90
2017,09,03,16,07,29.90
2017,09,03,16,08,29.90
2017,09,03,16,09,29.90
2017,09,03,16,10,29.90
2017,09,03,16,11,29.90
2017,09,03,16,12,30.00
2017,09,03,16,13,30.00
2017,09,03,16,14,30.10
2017,09,03,16,15,30.10
2017,09,03,16,16,30.20
2017,09,03,16,17,30.20
2017,09,03,16,18,30.30
2017,09,03,16,19,30.30
2017,09,03,16,20,30.30
2017,09,03,16,21,30.40
2017,09,03,16,22,30.40
2017,09,03,16,23,30.40
2017,09,03,16,24,30.50
2017,09,03,16,25,30.50
2017,09,03,16,26,30.60
2017,09,03,16,27,30.60
2017,09,03,16,28,30.60
2017,09,03,16,29,30.60
2017,09,03,16,30,30.60
2017,09,03,16,31,30.60
2017,09,03,16,32,30.60
2017,09,03,16,33,30.60
2017,09,03,16,34,30.70
2017,09,03,16,35,30.70
2017,09,03,16,36,30.70
2017,09,03,16,37,30.70
2017,09,03,16,38,30.70
2017,09,03,16,39,30.70
2017,09,03,16,40,30.70
2017,09,03,16,41,30.80
2017,09,03,16,42,30.80
2017,09,03,16,43,30.80
2017,09,03,16,44,30.90
2017,09,03,16,45,30.90
2017,09,03,16,46,30.90
2017,09,03,16,47,30.90
2017,09,03,16,48,31.00
2017,09,03,16,49,31.00
2017,09,03,16,50,31.00
2017,09,03,16,51,31.00
2017,09,03,16,52,31.00
2017,09,03,16,53,31.00
2017,09,03,16,54,31.10
2017,09,03,16,55,31.10
2017,09,03,16,56,31.10
2017,09,03,16,57,31.10
2017,09,03,16,58,31.10
2017,09,03,16,59,31.20
2017,09,03,17,00,31.20
2017,09,03,17,01,31.20
2017,09,03,17,02,31.30
2017,09,03,17,03,31.30
2017,09,03,17,04,31.30
2017,09,03,17,05,31.30
2017,09,03,17,06,31.30
2017,09,03,17,07,31.30
2017,09,03,17,08,31.30
2017,09,03,17,09,31.30
2017,09,03,17,10,31.30
2017,09,03,17,11,31.30
2017,09,03,17,12,31.20
2017,09,03,17,13,31.20
2017,09,03,17,14,31.20
2017,09,03,17,15,31.20
2017,09,03,17,16,31.20
2017,09,03,17,17,31.20
2017,09,03,17,18,31.20
2017,09,03,17,19,31.20